Location: Home
(42.5358°N, 72.7383°W)
Time: 14:51:08
(UTC-05:00)

ISS - Visible Passes

Search period start: 04 December 2022 00:00
Search period end: 14 December 2022 00:00
Orbit: 414 x 420 km, 51.6° (Epoch: 04 December)

Date Brightness Start Highest point End Pass type
(mag) Time Alt. Az. Time Alt. Az. Time Alt. Az.
04 Dec -3.5 17:17:55 10° NW 17:21:11 49° NNE 17:23:39 16° E visible
04 Dec -1.0 18:55:05 10° W 18:56:37 19° WSW 18:56:37 19° WSW visible
05 Dec -2.4 18:06:37 10° WNW 18:09:44 38° SW 18:11:20 22° SSE visible
06 Dec -3.4 17:18:18 10° WNW 17:21:38 66° SW 17:24:56 10° SE visible
07 Dec -0.6 18:07:59 10° W 18:09:49 14° SW 18:11:38 10° SSW visible
08 Dec -1.2 17:19:03 10° W 17:21:47 23° SW 17:24:31 10° S visible
